Theta_e
297 299 301 303 304 304 304 303 304 304 304 304 304 303 301 301 302 304 304 308 312 316 319 320 318 317 315 315 314 313 312 311 311 310 310 310 311 311 311 312 312 312 311
297 299 301 301 302 303 302 301 301 301 301 300 299 297 296 295 297 299 302 304 307 310 313 315 316 316 314 313 312 312 311 310 309 309 308 308 309 309 309 309 310 310 310
296 299 300 300 300 300 299 299 298 298 296 295 294 293 292 292 291 291 293 295 300 303 306 309 310 310 311 311 310 309 308 308 307 306 306 307 307 307 307 308 308 308 308
295 298 299 298 299 299 298 297 296 295 294 294 293 293 292 291 291 290 290 290 292 296 298 302 304 306 307 308 308 307 307 306 305 305 304 305 305 306 306 306 306 307 306
295 297 298 298 299 298 297 295 295 295 293 292 292 292 293 292 291 290 289 289 289 290 290 293 296 299 302 304 305 305 305 304 304 303 303 303 303 304 304 304 305 305 305
293 296 297 298 298 297 295 295 294 294 292 291 291 291 292 292 292 291 290 289 289 289 289 289 290 290 295 299 301 302 303 303 302 302 302 302 302 302 303 303 303 304 304
292 295 296 297 298 296 295 294 293 292 292 294 291 290 290 291 290 291 291 290 289 289 288 288 289 289 289 292 295 298 299 300 301 300 300 300 301 301 302 302 302 302 302
291 293 295 295 296 295 294 294 294 293 292 293 293 293 288 288 288 289 290 289 289 289 288 288 287 287 289 289 289 292 295 297 298 298 298 299 299 300 301 301 302 302 302
290 291 293 294 295 295 294 294 294 293 291 291 292 291 288 288 288 288 287 288 288 289 289 288 287 287 287 288 288 288 290 292 294 295 296 297 297 298 299 300 300 301 301
289 290 290 291 292 293 292 292 292 292 292 288 289 289 290 290 287 284 287 287 287 287 288 288 287 287 287 288 287 286 288 290 291 292 294 295 296 297 297 298 299 299 300
289 289 289 290 290 290 290 290 290 290 291 290 290 288 288 288 288 287 286 285 287 288 288 288 289 288 288 287 288 286 287 288 289 290 291 293 294 296 297 298 298 299 299
288 288 288 289 289 289 289 289 290 289 289 289 289 289 288 286 285 285 285 286 285 287 288 288 288 288 289 288 287 284 286 288 289 290 290 291 292 293 295 296 297 298 298
287 287 288 288 288 288 288 289 288 288 288 288 288 286 287 286 286 285 284 284 282 286 286 288 288 288 288 288 287 285 285 287 288 289 289 291 292 292 293 294 295 296 297
288 287 288 288 287 287 287 288 287 287 287 287 286 286 286 285 285 285 283 282 282 284 285 285 288 288 288 287 287 287 285 287 288 289 289 290 291 292 292 293 294 295 295
288 287 287 287 287 286 287 287 286 285 286 286 285 285 285 285 285 285 284 283 281 279 281 285 283 287 286 287 287 286 285 286 287 288 288 289 290 291 292 292 293 294 295
287 287 287 287 286 286 286 286 286 285 285 285 285 284 284 285 284 285 284 284 283 281 278 284 284 286 287 286 286 286 285 287 287 287 288 288 289 289 290 291 292 292 293
287 287 286 286 286 285 286 285 285 285 284 284 284 284 284 284 283 284 284 283 282 282 279 281 284 285 284 284 285 286 286 285 285 286 287 288 288 288 289 290 290 291 291
287 286 286 286 285 285 285 285 284 283 283 283 284 284 283 283 283 283 283 282 282 283 281 279 281 282 282 284 284 283 284 284 284 286 287 287 288 288 288 288 288 288 288
286 286 285 285 285 285 284 284 284 284 283 283 283 283 283 283 282 282 283 282 282 282 282 280 280 282 282 283 282 283 283 283 283 285 286 286 286 286 287 287 287 286 286
285 284 284 285 284 284 284 283 283 283 283 283 283 283 282 282 282 282 282 281 281 280 280 279 279 280 281 283 282 281 280 281 281 282 283 284 285 285 286 286 285 285 285
285 284 283 283 282 282 283 282 283 283 282 282 283 283 282 281 281 281 280 280 280 279 279 278 277 278 278 278 277 278 277 277 278 279 279 280 281 281 281 283 283 283 284
284 283 282 281 280 282 282 282 283 283 282 281 281 281 280 280 279 279 279 280 279 277 276 276 276 275 276 276 277 276 275 273 270 279 276 275 278 277 279 280 283 283 284
282 281 280 280 280 281 282 282 282 281 280 278 277 277 277 278 277 276 277 278 278 279 279 277 274 274 275 275 274 272 271 270 270 272 273 271 275 274 276 277 281 282 282
277 276 276 279 279 279 280 280 279 278 277 276 275 275 275 274 275 275 275 275 275 276 277 277 276 275 275 274 274 272 270 269 270 271 271 266 271 270 273 275 279 279 279
274 273 274 274 275 276 278 278 277 276 274 274 275 274 273 273 274 276 274 272 273 273 276 276 276 276 275 275 273 269 266 265 263 265 269 267 268 268 269 269 271 276 276
272 272 270 271 271 273 276 276 275 274 273 273 274 274 274 273 274 275 274 273 271 270 271 271 269 269 270 268 271 268 267 263 263 262 265 264 264 264 261 266 267 269 269
Wind_Speed
4 4 4 4 5 6 6 7 7 8 10 11 11 11 12 10 9 6 8 26 26 23 24 24 22 21 21 20 21 21 20 20 20 19 18 18 19 18 20 20 19 19 19
4 4 5 5 6 6 6 7 7 7 8 9 11 11 11 11 11 11 8 11 25 24 22 22 21 21 19 19 19 19 19 19 20 19 19 19 19 19 18 18 18 18 19
5 5 5 6 6 6 8 7 8 8 8 8 10 10 10 11 10 11 9 8 9 22 21 19 19 18 17 17 17 17 17 18 18 18 18 18 18 17 17 18 17 16 17
4 5 5 6 5 5 6 6 6 7 7 7 7 8 8 9 10 11 10 8 7 7 13 18 19 18 18 17 16 15 16 16 16 16 16 16 17 17 17 16 16 17 16
5 5 6 5 6 5 6 6 6 6 7 7 7 7 7 7 8 8 9 9 9 8 5 11 14 16 16 15 15 15 14 14 14 15 15 16 16 16 16 16 16 16 16
5 6 6 6 6 6 6 6 7 6 6 6 7 6 5 5 5 5 7 7 7 7 7 6 4 6 12 13 14 14 14 14 14 14 14 15 15 15 15 15 15 15 16
5 6 6 6 6 6 7 8 7 7 5 5 5 5 4 4 4 4 4 4 5 5 5 5 4 3 4 8 10 12 12 13 13 13 14 14 14 15 15 15 15 15 16
5 5 6 6 7 7 7 6 5 4 3 1 3 3 4 3 2 2 3 3 3 3 3 4 4 4 3 3 5 8 11 12 12 12 12 13 13 14 14 15 15 15 15
5 5 6 6 6 6 6 5 3 2 2 1 3 4 2 1 5 3 3 2 3 2 3 3 1 1 1 2 3 5 10 11 11 11 12 12 12 13 13 14 15 16 16
5 5 6 6 6 5 6 5 3 3 1 3 1 2 3 4 3 4 4 4 2 3 3 3 4 3 1 2 1 3 10 12 13 13 14 14 14 14 14 14 15 15 16
5 5 5 6 6 5 5 5 5 4 1 1 0 0 2 2 3 3 2 4 3 3 3 3 3 3 3 3 1 3 9 11 12 13 14 15 16 17 18 17 17 18 18
5 5 5 5 6 6 5 5 5 5 4 4 3 3 3 3 3 3 2 1 3 2 2 3 3 4 3 3 3 2 9 13 13 13 14 15 16 17 18 20 20 20 20
5 7 6 6 5 6 5 5 5 5 4 4 4 3 3 3 3 3 3 2 2 1 2 3 3 2 3 3 3 3 10 14 13 15 16 17 18 18 19 20 21 22 22
6 8 6 6 7 7 6 5 4 4 4 4 4 4 3 3 3 3 4 3 3 4 3 4 3 2 3 3 4 9 8 15 16 17 18 20 20 20 21 22 22 23 23
7 9 8 7 7 6 6 5 4 5 4 3 3 3 2 2 2 2 2 3 3 3 5 3 1 4 2 4 6 7 9 14 18 20 21 21 21 22 23 23 24 25 25
9 9 9 8 7 6 6 5 4 4 4 3 2 1 1 1 1 1 2 2 3 4 4 3 4 7 7 7 8 8 10 14 17 20 21 22 22 23 25 26 26 27 27
9 9 8 8 7 7 6 4 4 5 4 3 3 2 1 1 2 2 2 3 4 5 8 7 7 8 11 11 10 9 9 10 10 19 22 23 24 25 26 27 28 29 29
9 9 8 7 7 6 6 5 5 3 4 3 3 2 3 2 3 4 3 5 5 7 7 12 9 9 11 11 11 13 11 10 11 16 23 25 27 28 28 28 29 30 30
8 8 7 7 6 5 5 4 3 3 3 2 2 2 3 3 4 4 5 5 5 6 7 9 10 8 9 9 11 12 12 13 11 19 24 25 26 27 28 29 30 31 31
8 6 5 4 4 4 4 3 3 3 2 1 0 2 3 4 4 5 5 7 7 7 8 9 10 10 9 8 8 10 10 10 11 11 18 21 26 28 30 30 29 28 28
8 8 7 5 5 4 2 3 3 2 1 1 1 1 2 4 5 6 5 7 8 7 8 9 10 10 9 9 11 10 11 13 13 11 12 10 11 11 12 20 23 28 30
9 9 7 6 5 3 5 6 5 3 2 1 1 2 2 3 4 8 9 11 11 8 9 9 10 11 10 11 11 10 10 10 11 2 11 13 11 14 13 12 25 32 35
9 8 7 7 7 6 7 7 6 4 3 3 2 2 3 3 4 6 9 12 12 14 16 12 12 11 12 8 11 12 11 12 15 15 14 16 13 16 14 16 32 33 34
10 8 8 8 8 6 8 10 8 5 4 3 3 3 3 4 5 7 8 8 8 8 9 7 9 9 11 12 13 13 16 17 16 14 12 15 13 15 13 13 27 30 33
10 9 8 8 8 7 9 9 6 4 3 3 2 3 3 4 9 14 9 10 9 5 8 17 22 22 24 27 24 13 12 12 14 13 11 13 13 14 12 14 14 32 36
11 9 10 8 8 7 10 9 7 3 3 2 1 2 5 4 13 17 10 8 8 7 10 11 7 12 15 16 22 11 10 12 13 14 11 12 14 14 14 13 13 12 14
Wind_Direction
68 80 77 74 77 76 78 79 79 80 76 73 71 71 67 64 57 60 52 38 38 45 51 56 58 57 57 57 55 52 51 48 46 42 41 37 36 32 34 31 30 29 28
66 78 84 81 75 71 67 69 77 82 82 82 75 71 70 68 61 58 59 56 44 40 49 54 52 54 55 49 51 50 47 43 40 36 33 31 29 30 28 27 26 25 22
70 89 93 86 83 87 91 89 89 90 90 86 82 78 74 69 67 64 62 55 57 46 49 46 46 47 48 49 49 47 42 40 38 31 28 24 24 25 20 26 27 20 23
67 96 101 95 93 86 87 87 86 87 84 82 80 77 80 76 75 73 66 61 59 66 55 50 42 41 39 38 36 39 39 36 31 28 23 20 18 16 17 12 16 16 15
74 96 98 99 96 94 87 90 85 92 95 94 89 78 76 80 82 79 76 72 64 56 61 71 62 45 42 38 33 31 31 33 27 23 18 16 13 11 8 10 11 12 12
92 107 106 111 111 103 96 90 94 88 99 101 97 91 86 90 90 89 91 85 77 76 69 57 48 70 45 37 30 24 22 21 22 16 13 9 6 4 2 3 3 6 4
102 118 121 123 118 109 111 113 113 110 105 114 117 102 94 87 95 104 100 104 100 84 75 71 57 37 43 47 31 25 17 14 10 10 6 4 359 357 356 356 356 356 359
115 128 135 133 128 128 125 124 129 120 103 301 286 180 167 163 128 116 115 115 109 120 106 84 72 58 42 47 21 20 9 2 2 0 359 356 352 349 347 348 346 345 348
128 126 130 134 136 138 138 136 143 189 141 116 307 312 229 96 152 168 167 169 161 176 157 157 143 95 49 53 4 14 357 349 350 347 346 344 341 339 336 335 334 333 333
132 126 124 132 134 133 134 133 138 134 210 133 165 9 358 341 273 164 177 195 214 223 215 205 210 204 248 291 39 41 351 341 337 337 334 331 328 325 323 321 319 319 320
148 137 133 128 122 114 115 122 125 118 107 151 336 169 356 1 350 319 128 154 199 201 231 264 251 244 203 260 316 19 336 330 324 327 327 322 321 319 316 314 313 310 310
158 154 144 127 118 113 112 103 101 95 80 69 63 35 15 346 18 340 340 39 344 160 220 226 221 235 240 246 268 231 319 322 311 314 317 315 311 311 308 308 309 307 306
168 164 154 141 129 117 115 116 102 93 76 77 58 70 51 50 18 14 340 10 312 11 275 212 230 249 249 243 268 37 318 306 303 302 305 308 305 304 302 302 301 303 302
168 157 155 140 133 135 133 126 113 97 98 90 80 57 74 53 31 17 8 349 313 245 236 235 156 219 275 281 333 294 293 309 301 299 299 301 297 297 294 294 295 295 295
155 162 156 153 151 149 146 140 122 122 116 108 101 86 42 55 34 24 2 344 333 307 322 93 324 110 263 282 288 294 292 292 295 296 296 295 295 294 292 291 291 291 291
160 164 164 162 162 158 154 149 136 133 141 129 120 109 49 45 339 317 302 290 273 277 273 313 319 319 316 296 289 285 284 279 282 289 293 292 291 288 289 291 291 291 291
169 170 170 168 171 169 166 166 155 147 163 154 157 187 240 252 281 285 266 267 269 266 272 277 284 293 295 296 295 291 291 291 287 288 289 292 291 290 290 291 291 290 289
169 171 170 174 177 176 172 176 170 169 187 185 199 206 251 269 268 271 271 282 280 282 282 285 287 290 282 290 296 297 292 286 286 286 289 291 290 287 288 289 289 288 289
164 166 168 176 175 171 171 177 180 188 199 222 241 261 284 291 292 298 303 293 290 289 288 290 293 296 297 293 286 281 282 282 283 286 285 287 286 286 286 288 287 288 288
155 149 149 136 135 136 159 150 177 191 205 222 321 309 311 311 306 315 313 308 310 304 297 286 283 285 286 290 285 295 296 292 294 292 288 285 285 285 285 286 285 283 281
160 147 136 124 120 135 151 153 173 184 219 242 183 90 320 13 337 303 295 298 301 295 298 299 295 298 303 309 300 301 294 294 286 285 285 287 287 285 282 283 279 279 278
149 144 140 131 135 127 155 171 167 166 178 214 320 15 329 345 360 328 314 307 298 296 292 295 296 294 303 309 302 312 321 326 312 343 334 306 308 296 289 283 283 284 288
133 121 113 110 112 107 120 115 110 117 120 83 59 22 355 7 351 336 320 312 311 306 300 301 298 296 301 360 334 323 316 305 295 300 300 292 298 288 289 283 284 287 288
106 106 105 108 98 87 104 99 90 85 83 72 47 24 7 355 331 322 309 308 297 290 291 311 314 322 311 318 314 312 304 296 289 291 300 291 293 289 294 291 296 298 297
103 99 94 95 89 82 85 89 72 73 61 53 47 37 8 333 325 324 317 302 306 318 328 313 306 314 309 309 309 305 299 300 294 294 304 300 297 298 306 300 297 295 294
103 100 93 78 71 59 71 63 70 54 39 354 7 317 298 280 316 315 300 317 313 316 303 308 323 309 309 300 304 299 295 293 298 297 301 308 303 308 299 289 281 297 298